sat.trackr.live / text

‹ back to catalog

STARLINK-11201 [DTC]

NORAD 60113 · 2024-118A

PAYLOAD ACTIVE UNKNOWN

§ Identity

Operator
Country
US
Launch date
2024-06-24
Launch site
AFWTR
Launch vehicle
Mass (kg)
RCS (m²)

Purposes: comms

External: N2YO · Heavens-Above · Gunter

§ Orbital elements

Epoch: 2026-09-21T12:03:15.696864Z

Period
91.74 min
Inclination
53.1606°
Eccentricity
0.0001294
Mean motion
15.69704823 rev/d
Perigee alt
358.9 km
Apogee alt
360.6 km
Semi-major
6,737.9 km
B*
-4.9694e-6
RAAN
336.2925°
Arg perigee
80.4797°
Mean anomaly
279.6367°
Rev number
12,874

§ Raw data

STARLINK-11201 [DTC]1 60113U 24118A   26264.50226501 -.00001191  00000+0 -49694-5 0  99982 60113  53.1606 336.2925 0001294  80.4797 279.6367 15.69704823128742

JSON: /api/v1/satellites/60113 · /tle

For live sub-satellite position, see the globe view (requires WebGL).

§ Visibility from observer

Set your observer location to see the next 7 days of passes ≥ 10°. The values pass through the URL so the page stays shareable.

No JS? Fill the form by hand. The geolocation button needs JavaScript.